Time,TemperatureF,DewpointF,PressureIn,WindDirection,WindDirectionDegrees,WindSpeedMPH,WindSpeedGustMPH,Humidity,HourlyPrecipIn,Conditions,Clouds,dailyrainin,SoftwareType,DateUTC
2013-05-21 00:00:00,63.6,62.7,29.74,SE,134,11.0,11.0,97,0.00,,,0.00,Wunderground v.1.15,2013-05-21 05:00:00,
2013-05-21 00:05:00,63.5,62.6,29.73,SE,127,11.0,11.0,97,0.00,,,0.00,Wunderground v.1.15,2013-05-21 05:05:00,
2013-05-21 00:15:00,63.4,62.5,29.75,SSE,158,11.0,14.0,97,0.00,,,0.00,Wunderground v.1.15,2013-05-21 05:15:00,
2013-05-21 00:20:00,63.2,62.3,29.74,SE,146,13.0,18.0,97,0.00,,,0.00,Wunderground v.1.15,2013-05-21 05:20:00,
2013-05-21 00:25:00,63.1,62.2,29.74,SE,142,13.0,18.0,97,0.00,,,0.00,Wunderground v.1.15,2013-05-21 05:25:00,
2013-05-21 00:35:00,63.1,61.9,29.75,SSE,148,17.0,19.0,96,0.00,,,0.00,Wunderground v.1.15,2013-05-21 05:35:00,
2013-05-21 00:40:00,63.3,62.4,29.75,SSE,153,18.0,18.0,97,0.00,,,0.00,Wunderground v.1.15,2013-05-21 05:40:00,
2013-05-21 00:45:00,63.6,62.4,29.75,South,169,16.0,18.0,96,0.00,,,0.00,Wunderground v.1.15,2013-05-21 05:45:00,
2013-05-21 00:50:00,63.9,62.7,29.75,SSW,206,15.0,15.0,96,0.00,,,0.00,Wunderground v.1.15,2013-05-21 05:50:00,
2013-05-21 01:00:00,64.3,62.2,29.73,SSE,151,13.0,13.0,93,0.00,,,0.00,Wunderground v.1.15,2013-05-21 06:00:00,
2013-05-21 01:05:00,64.3,61.9,29.72,SE,138,14.0,14.0,92,0.00,,,0.00,Wunderground v.1.15,2013-05-21 06:05:00,
2013-05-21 01:10:00,64.3,61.6,29.72,SSW,194,14.0,14.0,91,0.00,,,0.00,Wunderground v.1.15,2013-05-21 06:10:00,
2013-05-21 01:15:00,64.2,61.5,29.72,SSW,198,12.0,14.0,91,0.00,,,0.00,Wunderground v.1.15,2013-05-21 06:15:00,
2013-05-21 01:20:00,64.2,61.5,29.72,South,176,10.0,11.0,91,0.00,,,0.00,Wunderground v.1.15,2013-05-21 06:20:00,
2013-05-21 01:25:00,64.1,61.4,29.72,South,180,10.0,15.0,91,0.00,,,0.00,Wunderground v.1.15,2013-05-21 06:25:00,
2013-05-21 01:30:00,64.1,61.4,29.73,SSW,203,12.0,16.0,91,0.00,,,0.00,Wunderground v.1.15,2013-05-21 06:30:00,
2013-05-21 01:35:00,64.1,61.4,29.73,South,191,12.0,16.0,91,0.00,,,0.00,Wunderground v.1.15,2013-05-21 06:35:00,
2013-05-21 01:40:00,64.1,61.4,29.73,SSW,200,12.0,12.0,91,0.00,,,0.00,Wunderground v.1.15,2013-05-21 06:40:00,
2013-05-21 01:50:00,64.2,61.5,29.73,South,188,11.0,14.0,91,0.00,,,0.00,Wunderground v.1.15,2013-05-21 06:50:00,
2013-05-21 01:55:00,64.2,61.5,29.73,SSW,195,11.0,14.0,91,0.00,,,0.00,Wunderground v.1.15,2013-05-21 06:55:00,
2013-05-21 02:00:00,64.2,61.5,29.73,South,177,11.0,12.0,91,0.00,,,0.00,Wunderground v.1.15,2013-05-21 07:00:00,
2013-05-21 02:05:00,64.3,61.3,29.72,South,191,13.0,13.0,90,0.00,,,0.00,Wunderground v.1.15,2013-05-21 07:05:00,
2013-05-21 02:10:00,64.2,61.5,29.72,South,188,12.0,12.0,91,0.00,,,0.00,Wunderground v.1.15,2013-05-21 07:10:00,
2013-05-21 02:15:00,64.2,61.5,29.71,South,177,11.0,12.0,91,0.00,,,0.00,Wunderground v.1.15,2013-05-21 07:15:00,
2013-05-21 02:20:00,64.1,61.4,29.71,SSW,198,11.0,11.0,91,0.00,,,0.00,Wunderground v.1.15,2013-05-21 07:20:00,
2013-05-21 02:25:00,64.1,61.4,29.72,South,187,11.0,12.0,91,0.00,,,0.00,Wunderground v.1.15,2013-05-21 07:25:00,
2013-05-21 02:35:00,63.9,61.2,29.72,South,180,9.0,10.0,91,0.00,,,0.00,Wunderground v.1.15,2013-05-21 07:35:00,
2013-05-21 02:45:00,63.6,61.2,29.72,South,183,8.0,8.0,92,0.00,,,0.00,Wunderground v.1.15,2013-05-21 07:45:00,
2013-05-21 02:50:00,63.4,61.0,29.73,SSE,160,7.0,8.0,92,0.00,,,0.00,Wunderground v.1.15,2013-05-21 07:50:00,
2013-05-21 02:55:00,63.2,61.1,29.73,SSE,158,8.0,8.0,93,0.00,,,0.00,Wunderground v.1.15,2013-05-21 07:55:00,
2013-05-21 03:00:00,63.1,61.0,29.73,SSE,166,8.0,8.0,93,0.00,,,0.00,Wunderground v.1.15,2013-05-21 08:00:00,
2013-05-21 03:05:00,63.1,61.0,29.73,SSE,167,8.0,8.0,93,0.00,,,0.00,Wunderground v.1.15,2013-05-21 08:05:00,
2013-05-21 03:15:00,63.0,60.9,29.74,SSE,157,9.0,11.0,93,0.00,,,0.00,Wunderground v.1.15,2013-05-21 08:15:00,
2013-05-21 03:20:00,63.0,61.2,29.74,SSE,156,10.0,13.0,94,0.00,,,0.00,Wunderground v.1.15,2013-05-21 08:20:00,
2013-05-21 03:25:00,63.0,60.9,29.74,SSE,151,11.0,13.0,93,0.00,,,0.00,Wunderground v.1.15,2013-05-21 08:25:00,
2013-05-21 03:30:00,62.9,61.1,29.74,SSE,160,11.0,11.0,94,0.00,,,0.00,Wunderground v.1.15,2013-05-21 08:30:00,
2013-05-21 03:35:00,62.9,61.1,29.74,SSE,150,11.0,11.0,94,0.00,,,0.00,Wunderground v.1.15,2013-05-21 08:35:00,
2013-05-21 03:40:00,62.8,61.0,29.73,SSE,159,11.0,13.0,94,0.00,,,0.00,Wunderground v.1.15,2013-05-21 08:40:00,
2013-05-21 03:45:00,62.7,60.9,29.74,SSE,159,10.0,13.0,94,0.00,,,0.00,Wunderground v.1.15,2013-05-21 08:45:00,
2013-05-21 03:55:00,62.6,60.8,29.73,South,186,10.0,11.0,94,0.00,,,0.00,Wunderground v.1.15,2013-05-21 08:55:00,
2013-05-21 04:00:00,62.5,60.7,29.74,SSE,148,9.0,10.0,94,0.00,,,0.00,Wunderground v.1.15,2013-05-21 09:00:00,
2013-05-21 04:05:00,62.5,60.7,29.74,SE,141,10.0,11.0,94,0.00,,,0.00,Wunderground v.1.15,2013-05-21 09:05:00,
2013-05-21 04:10:00,62.6,60.8,29.73,SE,143,10.0,10.0,94,0.00,,,0.00,Wunderground v.1.15,2013-05-21 09:10:00,
2013-05-21 04:15:00,62.6,60.8,29.73,SSE,154,10.0,10.0,94,0.00,,,0.00,Wunderground v.1.15,2013-05-21 09:15:00,
2013-05-21 04:20:00,62.6,60.8,29.73,SSE,155,10.0,12.0,94,0.00,,,0.00,Wunderground v.1.15,2013-05-21 09:20:00,
2013-05-21 04:25:00,62.6,60.8,29.73,SE,141,10.0,12.0,94,0.00,,,0.00,Wunderground v.1.15,2013-05-21 09:25:00,
2013-05-21 04:30:00,62.5,60.7,29.74,SE,141,11.0,11.0,94,0.00,,,0.00,Wunderground v.1.15,2013-05-21 09:30:00,
2013-05-21 04:35:00,62.5,60.7,29.74,SE,140,11.0,11.0,94,0.00,,,0.00,Wunderground v.1.15,2013-05-21 09:35:00,
2013-05-21 04:45:00,62.5,61.0,29.73,SSE,147,10.0,11.0,95,0.00,,,0.00,Wunderground v.1.15,2013-05-21 09:45:00,
2013-05-21 04:50:00,62.5,60.7,29.73,SE,146,11.0,12.0,94,0.00,,,0.00,Wunderground v.1.15,2013-05-21 09:50:00,
2013-05-21 04:55:00,62.6,60.8,29.73,SSE,148,11.0,12.0,94,0.00,,,0.00,Wunderground v.1.15,2013-05-21 09:55:00,
2013-05-21 05:00:00,62.6,60.8,29.73,SSE,161,10.0,14.0,94,0.00,,,0.00,Wunderground v.1.15,2013-05-21 10:00:00,
2013-05-21 05:05:00,62.7,60.9,29.73,SSE,165,10.0,14.0,94,0.00,,,0.00,Wunderground v.1.15,2013-05-21 10:05:00,
2013-05-21 05:10:00,62.7,60.9,29.73,South,169,10.0,10.0,94,0.00,,,0.00,Wunderground v.1.15,2013-05-21 10:10:00,
2013-05-21 05:15:00,62.7,60.9,29.73,SSE,166,9.0,10.0,94,0.00,,,0.00,Wunderground v.1.15,2013-05-21 10:15:00,
2013-05-21 05:20:00,62.7,60.9,29.72,SSE,162,9.0,10.0,94,0.00,,,0.00,Wunderground v.1.15,2013-05-21 10:20:00,
2013-05-21 05:25:00,62.8,61.0,29.72,SSE,159,9.0,10.0,94,0.00,,,0.00,Wunderground v.1.15,2013-05-21 10:25:00,
2013-05-21 05:30:00,62.7,60.9,29.73,South,172,9.0,9.0,94,0.00,,,0.00,Wunderground v.1.15,2013-05-21 10:30:00,
2013-05-21 05:35:00,62.7,60.9,29.73,South,169,9.0,9.0,94,0.00,,,0.00,Wunderground v.1.15,2013-05-21 10:35:00,
2013-05-21 05:40:00,62.7,60.9,29.73,South,174,8.0,8.0,94,0.00,,,0.00,Wunderground v.1.15,2013-05-21 10:40:00,
2013-05-21 05:45:00,62.6,60.8,29.73,SSE,162,8.0,8.0,94,0.00,,,0.00,Wunderground v.1.15,2013-05-21 10:45:00,
2013-05-21 05:50:00,62.6,60.8,29.73,SSE,164,8.0,8.0,94,0.00,,,0.00,Wunderground v.1.15,2013-05-21 10:50:00,
2013-05-21 06:00:00,62.7,60.9,29.73,South,181,9.0,9.0,94,0.00,,,0.00,Wunderground v.1.15,2013-05-21 11:00:00,
2013-05-21 06:05:00,62.6,60.8,29.73,SSE,163,8.0,9.0,94,0.00,,,0.00,Wunderground v.1.15,2013-05-21 11:05:00,
2013-05-21 06:15:00,62.8,61.3,29.73,SSE,165,8.0,8.0,95,0.00,,,0.00,Wunderground v.1.15,2013-05-21 11:15:00,
2013-05-21 06:25:00,63.0,61.5,29.73,SSE,158,8.0,8.0,95,0.00,,,0.00,Wunderground v.1.15,2013-05-21 11:25:00,
2013-05-21 06:35:00,63.4,61.6,29.72,South,174,8.0,8.0,94,0.00,,,0.00,Wunderground v.1.15,2013-05-21 11:35:00,
2013-05-21 06:40:00,63.8,62.0,29.72,South,174,8.0,8.0,94,0.00,,,0.00,Wunderground v.1.15,2013-05-21 11:40:00,
2013-05-21 06:45:00,64.1,62.3,29.72,South,174,8.0,9.0,94,0.00,,,0.00,Wunderground v.1.15,2013-05-21 11:45:00,
2013-05-21 06:50:00,64.3,62.2,29.72,SSW,198,8.0,8.0,93,0.00,,,0.00,Wunderground v.1.15,2013-05-21 11:50:00,
2013-05-21 06:55:00,64.5,62.4,29.72,SSW,212,8.0,8.0,93,0.00,,,0.00,Wunderground v.1.15,2013-05-21 11:55:00,
2013-05-21 07:00:00,64.5,62.4,29.72,SSW,200,9.0,9.0,93,0.00,,,0.00,Wunderground v.1.15,2013-05-21 12:00:00,
2013-05-21 07:05:00,64.5,62.4,29.72,SSW,194,8.0,9.0,93,0.00,,,0.00,Wunderground v.1.15,2013-05-21 12:05:00,
2013-05-21 07:10:00,64.6,62.5,29.72,SSW,207,8.0,8.0,93,0.00,,,0.00,Wunderground v.1.15,2013-05-21 12:10:00,
2013-05-21 07:15:00,64.6,62.5,29.72,SSW,205,8.0,10.0,93,0.00,,,0.00,Wunderground v.1.15,2013-05-21 12:15:00,
2013-05-21 07:20:00,64.7,62.6,29.73,SW,215,8.0,8.0,93,0.00,,,0.00,Wunderground v.1.15,2013-05-21 12:20:00,
2013-05-21 07:25:00,64.8,62.7,29.73,SSW,210,8.0,8.0,93,0.00,,,0.00,Wunderground v.1.15,2013-05-21 12:25:00,
2013-05-21 07:30:00,65.2,63.1,29.73,SSW,204,8.0,8.0,93,0.00,,,0.00,Wunderground v.1.15,2013-05-21 12:30:00,
2013-05-21 07:35:00,65.5,63.1,29.73,SW,215,9.0,11.0,92,0.00,,,0.00,Wunderground v.1.15,2013-05-21 12:35:00,
2013-05-21 07:40:00,66.0,63.6,29.73,South,174,10.0,10.0,92,0.00,,,0.00,Wunderground v.1.15,2013-05-21 12:40:00,
2013-05-21 07:45:00,66.2,63.5,29.73,SSE,160,11.0,11.0,91,0.00,,,0.00,Wunderground v.1.15,2013-05-21 12:45:00,
2013-05-21 07:50:00,66.4,63.7,29.73,SSE,165,11.0,11.0,91,0.00,,,0.00,Wunderground v.1.15,2013-05-21 12:50:00,
2013-05-21 07:55:00,66.5,64.1,29.73,SSE,164,10.0,11.0,92,0.00,,,0.00,Wunderground v.1.15,2013-05-21 12:55:00,
2013-05-21 08:00:00,66.5,63.8,29.74,SSW,197,10.0,12.0,91,0.00,,,0.00,Wunderground v.1.15,2013-05-21 13:00:00,
2013-05-21 08:10:00,66.7,64.0,29.74,South,170,10.0,10.0,91,0.00,,,0.00,Wunderground v.1.15,2013-05-21 13:10:00,
2013-05-21 08:15:00,66.8,64.1,29.74,South,188,10.0,10.0,91,0.00,,,0.00,Wunderground v.1.15,2013-05-21 13:15:00,
2013-05-21 08:20:00,67.0,64.0,29.74,SSW,197,10.0,12.0,90,0.00,,,0.00,Wunderground v.1.15,2013-05-21 13:20:00,
2013-05-21 08:25:00,67.1,64.1,29.74,South,173,11.0,13.0,90,0.00,,,0.00,Wunderground v.1.15,2013-05-21 13:25:00,
2013-05-21 08:30:00,67.2,64.5,29.74,South,190,11.0,11.0,91,0.00,,,0.00,Wunderground v.1.15,2013-05-21 13:30:00,
2013-05-21 08:35:00,67.3,64.6,29.74,South,187,11.0,11.0,91,0.00,,,0.00,Wunderground v.1.15,2013-05-21 13:35:00,
2013-05-21 08:40:00,67.2,64.5,29.74,SSW,198,10.0,12.0,91,0.00,,,0.00,Wunderground v.1.15,2013-05-21 13:40:00,
2013-05-21 08:45:00,67.4,64.7,29.74,SSW,210,10.0,12.0,91,0.00,,,0.00,Wunderground v.1.15,2013-05-21 13:45:00,
2013-05-21 08:50:00,67.6,64.9,29.74,SSW,208,10.0,12.0,91,0.00,,,0.00,Wunderground v.1.15,2013-05-21 13:50:00,
2013-05-21 08:55:00,67.9,65.2,29.74,SSW,195,11.0,14.0,91,0.00,,,0.00,Wunderground v.1.15,2013-05-21 13:55:00,
2013-05-21 09:00:00,68.0,65.0,29.74,SSW,198,11.0,11.0,90,0.00,,,0.00,Wunderground v.1.15,2013-05-21 14:00:00,
2013-05-21 09:05:00,68.3,65.3,29.74,SSW,195,10.0,13.0,90,0.00,,,0.00,Wunderground v.1.15,2013-05-21 14:05:00,
2013-05-21 09:10:00,68.3,64.9,29.75,SSW,207,11.0,14.0,89,0.00,,,0.00,Wunderground v.1.15,2013-05-21 14:10:00,
2013-05-21 09:15:00,68.5,65.1,29.74,South,191,12.0,14.0,89,0.00,,,0.00,Wunderground v.1.15,2013-05-21 14:15:00,
2013-05-21 09:20:00,68.6,65.2,29.74,SSW,194,12.0,14.0,89,0.00,,,0.00,Wunderground v.1.15,2013-05-21 14:20:00,
2013-05-21 09:25:00,69.1,65.7,29.74,SSW,197,11.0,14.0,89,0.00,,,0.00,Wunderground v.1.15,2013-05-21 14:25:00,
2013-05-21 09:30:00,69.5,66.4,29.74,South,180,9.0,9.0,90,0.00,,,0.00,Wunderground v.1.15,2013-05-21 14:30:00,
2013-05-21 09:35:00,69.9,66.2,29.74,SW,236,9.0,11.0,88,0.00,,,0.00,Wunderground v.1.15,2013-05-21 14:35:00,
2013-05-21 09:40:00,69.8,66.1,29.74,SW,222,10.0,11.0,88,0.00,,,0.00,Wunderground v.1.15,2013-05-21 14:40:00,
2013-05-21 09:50:00,69.7,65.0,29.74,SSW,210,12.0,12.0,85,0.00,,,0.00,Wunderground v.1.15,2013-05-21 14:50:00,
2013-05-21 09:55:00,69.8,65.8,29.74,SW,222,12.0,12.0,87,0.00,,,0.00,Wunderground v.1.15,2013-05-21 14:55:00,
2013-05-21 10:00:00,70.2,66.5,29.74,SSW,194,11.0,14.0,88,0.00,,,0.00,Wunderground v.1.15,2013-05-21 15:00:00,
2013-05-21 10:05:00,70.3,66.6,29.74,SW,214,12.0,14.0,88,0.00,,,0.00,Wunderground v.1.15,2013-05-21 15:05:00,
2013-05-21 10:10:00,70.3,66.6,29.74,South,184,12.0,12.0,88,0.00,,,0.00,Wunderground v.1.15,2013-05-21 15:10:00,
2013-05-21 10:15:00,70.4,66.0,29.74,SSW,200,12.0,12.0,86,0.00,,,0.00,Wunderground v.1.15,2013-05-21 15:15:00,
2013-05-21 10:20:00,70.6,66.5,29.75,SSW,201,11.0,11.0,87,0.00,,,0.00,Wunderground v.1.15,2013-05-21 15:20:00,
2013-05-21 10:25:00,70.9,66.8,29.74,SSW,210,11.0,11.0,87,0.00,,,0.00,Wunderground v.1.15,2013-05-21 15:25:00,
2013-05-21 10:30:00,71.0,66.9,29.75,SSW,200,10.0,10.0,87,0.00,,,0.00,Wunderground v.1.15,2013-05-21 15:30:00,
2013-05-21 10:35:00,71.1,66.4,29.74,South,179,11.0,11.0,85,0.00,,,0.00,Wunderground v.1.15,2013-05-21 15:35:00,
2013-05-21 10:40:00,71.2,66.5,29.74,South,179,11.0,11.0,85,0.00,,,0.00,Wunderground v.1.15,2013-05-21 15:40:00,
2013-05-21 10:45:00,71.6,66.2,29.74,SSW,193,11.0,13.0,83,0.00,,,0.00,Wunderground v.1.15,2013-05-21 15:45:00,
2013-05-21 10:50:00,71.7,66.9,29.74,SSE,165,10.0,10.0,85,0.00,,,0.00,Wunderground v.1.15,2013-05-21 15:50:00,
2013-05-21 10:55:00,71.9,67.5,29.75,SSW,203,11.0,11.0,86,0.00,,,0.00,Wunderground v.1.15,2013-05-21 15:55:00,
2013-05-21 11:00:00,72.3,66.8,29.74,SE,136,11.0,11.0,83,0.00,,,0.00,Wunderground v.1.15,2013-05-21 16:00:00,
2013-05-21 11:05:00,72.6,67.1,29.74,SSE,167,11.0,11.0,83,0.00,,,0.00,Wunderground v.1.15,2013-05-21 16:05:00,
2013-05-21 11:10:00,72.5,67.0,29.74,SE,139,11.0,14.0,83,0.00,,,0.00,Wunderground v.1.15,2013-05-21 16:10:00,
2013-05-21 11:15:00,72.5,68.1,29.74,South,188,12.0,14.0,86,0.00,,,0.00,Wunderground v.1.15,2013-05-21 16:15:00,
2013-05-21 11:20:00,72.8,67.0,29.74,SSE,148,11.0,11.0,82,0.00,,,0.00,Wunderground v.1.15,2013-05-21 16:20:00,
2013-05-21 11:25:00,73.0,66.5,29.74,SSW,200,11.0,11.0,80,0.00,,,0.00,Wunderground v.1.15,2013-05-21 16:25:00,
2013-05-21 11:30:00,73.5,66.6,29.73,SSW,194,10.0,13.0,79,0.00,,,0.00,Wunderground v.1.15,2013-05-21 16:30:00,
2013-05-21 11:35:00,73.5,66.6,29.73,SSE,156,11.0,13.0,79,0.00,,,0.00,Wunderground v.1.15,2013-05-21 16:35:00,
2013-05-21 11:40:00,73.6,65.9,29.73,SSE,164,11.0,11.0,77,0.00,,,0.00,Wunderground v.1.15,2013-05-21 16:40:00,
2013-05-21 11:45:00,73.9,66.6,29.73,SSW,207,11.0,11.0,78,0.00,,,0.00,Wunderground v.1.15,2013-05-21 16:45:00,
2013-05-21 11:50:00,74.3,67.0,29.73,South,184,11.0,11.0,78,0.00,,,0.00,Wunderground v.1.15,2013-05-21 16:50:00,
2013-05-21 11:55:00,74.5,67.9,29.73,South,184,11.0,11.0,80,0.00,,,0.00,Wunderground v.1.15,2013-05-21 16:55:00,
2013-05-21 12:00:00,74.8,65.6,29.73,SSW,200,11.0,11.0,73,0.00,,,0.00,Wunderground v.1.15,2013-05-21 17:00:00,
2013-05-21 12:10:00,75.5,66.2,29.73,South,181,11.0,14.0,73,0.00,,,0.00,Wunderground v.1.15,2013-05-21 17:10:00,
2013-05-21 12:15:00,75.4,66.5,29.73,SW,229,12.0,14.0,74,0.00,,,0.00,Wunderground v.1.15,2013-05-21 17:15:00,
2013-05-21 12:20:00,75.3,64.4,29.74,SSW,197,13.0,13.0,69,0.00,,,0.00,Wunderground v.1.15,2013-05-21 17:20:00,
2013-05-21 12:25:00,75.4,64.9,29.74,SSW,197,12.0,14.0,70,0.00,,,0.00,Wunderground v.1.15,2013-05-21 17:25:00,
2013-05-21 12:30:00,75.7,65.2,29.74,SSW,201,12.0,12.0,70,0.00,,,0.00,Wunderground v.1.15,2013-05-21 17:30:00,
2013-05-21 12:35:00,75.6,64.3,29.74,SW,219,12.0,12.0,68,0.00,,,0.00,Wunderground v.1.15,2013-05-21 17:35:00,
2013-05-21 12:40:00,76.3,67.0,29.74,SSE,166,12.0,13.0,73,0.00,,,0.00,Wunderground v.1.15,2013-05-21 17:40:00,
2013-05-21 12:45:00,76.6,66.1,29.74,SSW,210,12.0,15.0,70,0.00,,,0.00,Wunderground v.1.15,2013-05-21 17:45:00,
2013-05-21 12:50:00,76.3,65.4,29.74,SW,215,14.0,17.0,69,0.00,,,0.00,Wunderground v.1.15,2013-05-21 17:50:00,
2013-05-21 12:55:00,76.3,64.1,29.74,South,188,14.0,17.0,66,0.00,,,0.00,Wunderground v.1.15,2013-05-21 17:55:00,
2013-05-21 13:00:00,76.8,67.9,29.74,South,188,13.0,13.0,74,0.00,,,0.00,Wunderground v.1.15,2013-05-21 18:00:00,
2013-05-21 13:10:00,77.0,65.6,29.74,South,170,12.0,12.0,68,0.00,,,0.00,Wunderground v.1.15,2013-05-21 18:10:00,
2013-05-21 13:20:00,77.1,65.7,29.74,SSW,207,12.0,13.0,68,0.00,,,0.00,Wunderground v.1.15,2013-05-21 18:20:00,
2013-05-21 13:25:00,77.2,65.4,29.74,SSE,162,12.0,13.0,67,0.00,,,0.00,Wunderground v.1.15,2013-05-21 18:25:00,
2013-05-21 13:30:00,77.5,67.4,29.73,SSW,207,12.0,12.0,71,0.00,,,0.00,Wunderground v.1.15,2013-05-21 18:30:00,
2013-05-21 13:35:00,77.6,65.3,29.74,SSE,158,13.0,16.0,66,0.00,,,0.00,Wunderground v.1.15,2013-05-21 18:35:00,
2013-05-21 13:40:00,77.4,64.7,29.73,South,174,13.0,13.0,65,0.00,,,0.00,Wunderground v.1.15,2013-05-21 18:40:00,
2013-05-21 13:45:00,77.5,66.9,29.74,South,188,13.0,13.0,70,0.00,,,0.00,Wunderground v.1.15,2013-05-21 18:45:00,
2013-05-21 13:50:00,77.5,66.1,29.74,SSW,198,12.0,12.0,68,0.00,,,0.00,Wunderground v.1.15,2013-05-21 18:50:00,
2013-05-21 13:55:00,77.5,66.5,29.73,South,177,12.0,14.0,69,0.00,,,0.00,Wunderground v.1.15,2013-05-21 18:55:00,
2013-05-21 14:00:00,77.5,65.7,29.73,SE,130,13.0,17.0,67,0.00,,,0.00,Wunderground v.1.15,2013-05-21 19:00:00,
2013-05-21 14:05:00,77.5,64.8,29.73,SSE,160,15.0,17.0,65,0.00,,,0.00,Wunderground v.1.15,2013-05-21 19:05:00,
2013-05-21 14:10:00,77.7,66.7,29.73,South,169,14.0,14.0,69,0.00,,,0.00,Wunderground v.1.15,2013-05-21 19:10:00,
2013-05-21 14:15:00,77.9,65.6,29.73,SW,214,14.0,14.0,66,0.00,,,0.00,Wunderground v.1.15,2013-05-21 19:15:00,
2013-05-21 14:20:00,78.0,65.3,29.73,South,179,13.0,13.0,65,0.00,,,0.00,Wunderground v.1.15,2013-05-21 19:20:00,
2013-05-21 14:25:00,78.3,67.3,29.72,SSE,160,12.0,13.0,69,0.00,,,0.00,Wunderground v.1.15,2013-05-21 19:25:00,
2013-05-21 14:30:00,78.0,64.4,29.73,South,184,13.0,13.0,63,0.00,,,0.00,Wunderground v.1.15,2013-05-21 19:30:00,
2013-05-21 14:35:00,78.1,66.7,29.72,SSE,166,14.0,14.0,68,0.00,,,0.00,Wunderground v.1.15,2013-05-21 19:35:00,
2013-05-21 14:40:00,78.2,66.8,29.72,SSE,156,14.0,14.0,68,0.00,,,0.00,Wunderground v.1.15,2013-05-21 19:40:00,
2013-05-21 14:45:00,78.5,65.8,29.72,SSW,197,13.0,14.0,65,0.00,,,0.00,Wunderground v.1.15,2013-05-21 19:45:00,
2013-05-21 14:50:00,78.2,64.6,29.73,South,179,12.0,12.0,63,0.00,,,0.00,Wunderground v.1.15,2013-05-21 19:50:00,
2013-05-21 14:55:00,78.5,65.3,29.73,SW,215,13.0,13.0,64,0.00,,,0.00,Wunderground v.1.15,2013-05-21 19:55:00,
2013-05-21 15:00:00,78.3,65.6,29.73,SSW,204,13.0,13.0,65,0.00,,,0.00,Wunderground v.1.15,2013-05-21 20:00:00,
2013-05-21 15:05:00,78.5,64.9,29.73,SSE,158,14.0,14.0,63,0.00,,,0.00,Wunderground v.1.15,2013-05-21 20:05:00,
2013-05-21 15:10:00,78.8,66.9,29.73,SW,215,14.0,16.0,67,0.00,,,0.00,Wunderground v.1.15,2013-05-21 20:10:00,
2013-05-21 15:15:00,78.8,66.0,29.73,SW,215,13.0,16.0,65,0.00,,,0.00,Wunderground v.1.15,2013-05-21 20:15:00,
2013-05-21 15:20:00,78.9,64.8,29.72,SSW,211,12.0,15.0,62,0.00,,,0.00,Wunderground v.1.15,2013-05-21 20:20:00,
2013-05-21 15:25:00,78.8,64.7,29.72,SSW,197,13.0,15.0,62,0.00,,,0.00,Wunderground v.1.15,2013-05-21 20:25:00,
2013-05-21 15:30:00,78.8,63.7,29.73,SSW,210,13.0,13.0,60,0.00,,,0.00,Wunderground v.1.15,2013-05-21 20:30:00,
2013-05-21 15:35:00,79.0,65.3,29.72,SSW,194,13.0,15.0,63,0.00,,,0.00,Wunderground v.1.15,2013-05-21 20:35:00,
2013-05-21 15:45:00,79.0,66.2,29.72,SW,219,15.0,18.0,65,0.00,,,0.00,Wunderground v.1.15,2013-05-21 20:45:00,
2013-05-21 15:50:00,79.3,66.5,29.72,South,169,13.0,14.0,65,0.00,,,0.00,Wunderground v.1.15,2013-05-21 20:50:00,
2013-05-21 15:55:00,79.4,64.8,29.72,SSW,207,12.0,14.0,61,0.00,,,0.00,Wunderground v.1.15,2013-05-21 20:55:00,
2013-05-21 16:00:00,79.3,64.2,29.72,South,184,13.0,16.0,60,0.00,,,0.00,Wunderground v.1.15,2013-05-21 21:00:00,
2013-05-21 16:05:00,79.3,63.7,29.72,SSW,193,14.0,17.0,59,0.00,,,0.00,Wunderground v.1.15,2013-05-21 21:05:00,
2013-05-21 16:10:00,79.2,66.0,29.72,SW,225,15.0,15.0,64,0.00,,,0.00,Wunderground v.1.15,2013-05-21 21:10:00,
2013-05-21 16:15:00,79.3,64.7,29.72,SW,214,14.0,16.0,61,0.00,,,0.00,Wunderground v.1.15,2013-05-21 21:15:00,
2013-05-21 16:20:00,79.3,64.2,29.72,SW,214,15.0,15.0,60,0.00,,,0.00,Wunderground v.1.15,2013-05-21 21:20:00,
2013-05-21 16:25:00,79.3,65.1,29.72,South,179,15.0,15.0,62,0.00,,,0.00,Wunderground v.1.15,2013-05-21 21:25:00,
2013-05-21 16:30:00,79.2,66.4,29.71,SSW,210,15.0,15.0,65,0.00,,,0.00,Wunderground v.1.15,2013-05-21 21:30:00,
2013-05-21 16:35:00,79.3,65.6,29.71,SW,220,13.0,15.0,63,0.00,,,0.00,Wunderground v.1.15,2013-05-21 21:35:00,
2013-05-21 16:40:00,79.4,65.2,29.71,SSW,201,13.0,13.0,62,0.00,,,0.00,Wunderground v.1.15,2013-05-21 21:40:00,
2013-05-21 16:45:00,79.4,65.2,29.70,SSW,204,13.0,16.0,62,0.00,,,0.00,Wunderground v.1.15,2013-05-21 21:45:00,
2013-05-21 16:50:00,79.3,65.1,29.70,SSW,197,13.0,13.0,62,0.00,,,0.00,Wunderground v.1.15,2013-05-21 21:50:00,
2013-05-21 16:55:00,79.4,65.2,29.70,SSW,198,12.0,13.0,62,0.00,,,0.00,Wunderground v.1.15,2013-05-21 21:55:00,
2013-05-21 17:00:00,79.4,64.3,29.70,SSW,210,12.0,13.0,60,0.00,,,0.00,Wunderground v.1.15,2013-05-21 22:00:00,
2013-05-21 17:10:00,79.3,65.1,29.70,SSW,197,13.0,13.0,62,0.00,,,0.00,Wunderground v.1.15,2013-05-21 22:10:00,
2013-05-21 17:15:00,79.6,65.9,29.69,SW,236,12.0,13.0,63,0.00,,,0.00,Wunderground v.1.15,2013-05-21 22:15:00,
2013-05-21 17:20:00,79.0,65.3,29.69,South,183,12.0,12.0,63,0.00,,,0.00,Wunderground v.1.15,2013-05-21 22:20:00,
2013-05-21 17:25:00,78.8,65.6,29.69,SSW,210,12.0,12.0,64,0.00,,,0.00,Wunderground v.1.15,2013-05-21 22:25:00,
2013-05-21 17:30:00,78.7,65.0,29.68,SSW,212,11.0,11.0,63,0.00,,,0.00,Wunderground v.1.15,2013-05-21 22:30:00,
2013-05-21 17:40:00,79.0,65.3,29.69,South,184,12.0,12.0,63,0.00,,,0.00,Wunderground v.1.15,2013-05-21 22:40:00,
2013-05-21 17:45:00,79.1,65.9,29.68,SSW,204,12.0,12.0,64,0.00,,,0.00,Wunderground v.1.15,2013-05-21 22:45:00,
2013-05-21 17:50:00,79.2,65.1,29.68,South,174,11.0,11.0,62,0.00,,,0.00,Wunderground v.1.15,2013-05-21 22:50:00,
2013-05-21 18:00:00,78.5,65.3,29.68,SW,221,11.0,11.0,64,0.00,,,0.00,Wunderground v.1.15,2013-05-21 23:00:00,
2013-05-21 18:05:00,78.1,65.8,29.68,SW,219,10.0,11.0,66,0.00,,,0.00,Wunderground v.1.15,2013-05-21 23:05:00,
2013-05-21 18:10:00,77.8,66.0,29.68,SW,225,10.0,10.0,67,0.00,,,0.00,Wunderground v.1.15,2013-05-21 23:10:00,
2013-05-21 18:15:00,78.0,66.2,29.68,SSW,207,10.0,11.0,67,0.00,,,0.00,Wunderground v.1.15,2013-05-21 23:15:00,
2013-05-21 18:20:00,78.3,66.0,29.68,South,184,9.0,9.0,66,0.00,,,0.00,Wunderground v.1.15,2013-05-21 23:20:00,
2013-05-21 18:25:00,78.3,65.6,29.68,SW,229,10.0,10.0,65,0.00,,,0.00,Wunderground v.1.15,2013-05-21 23:25:00,
2013-05-21 18:30:00,78.5,66.2,29.68,South,190,10.0,11.0,66,0.00,,,0.00,Wunderground v.1.15,2013-05-21 23:30:00,
2013-05-21 18:35:00,78.2,65.9,29.69,SSW,194,9.0,11.0,66,0.00,,,0.00,Wunderground v.1.15,2013-05-21 23:35:00,
2013-05-21 18:40:00,78.0,66.2,29.69,SW,214,10.0,10.0,67,0.00,,,0.00,Wunderground v.1.15,2013-05-21 23:40:00,
2013-05-21 18:45:00,77.6,66.2,29.69,South,184,9.0,10.0,68,0.00,,,0.00,Wunderground v.1.15,2013-05-21 23:45:00,
2013-05-21 18:50:00,77.4,66.4,29.70,South,181,7.0,7.0,69,0.00,,,0.00,Wunderground v.1.15,2013-05-21 23:50:00,
2013-05-21 18:55:00,77.4,66.8,29.70,SSW,210,7.0,7.0,70,0.00,,,0.00,Wunderground v.1.15,2013-05-21 23:55:00,
2013-05-21 19:00:00,77.4,66.0,29.69,SW,215,7.0,7.0,68,0.00,,,0.00,Wunderground v.1.15,2013-05-22 00:00:00,
2013-05-21 19:05:00,77.4,66.4,29.69,SW,214,7.0,7.0,69,0.00,,,0.00,Wunderground v.1.15,2013-05-22 00:05:00,
2013-05-21 19:10:00,77.3,66.3,29.70,SW,232,6.0,7.0,69,0.00,,,0.00,Wunderground v.1.15,2013-05-22 00:10:00,
2013-05-21 19:15:00,77.2,66.2,29.70,SW,218,6.0,7.0,69,0.00,,,0.00,Wunderground v.1.15,2013-05-22 00:15:00,
2013-05-21 19:20:00,76.8,66.3,29.70,SSW,208,6.0,6.0,70,0.00,,,0.00,Wunderground v.1.15,2013-05-22 00:20:00,
2013-05-21 19:25:00,76.5,66.8,29.71,SW,220,6.0,6.0,72,0.00,,,0.00,Wunderground v.1.15,2013-05-22 00:25:00,
2013-05-21 19:30:00,76.2,66.5,29.71,SSW,207,6.0,6.0,72,0.00,,,0.00,Wunderground v.1.15,2013-05-22 00:30:00,
2013-05-21 19:35:00,76.0,65.9,29.71,SSW,212,5.0,6.0,71,0.00,,,0.00,Wunderground v.1.15,2013-05-22 00:35:00,
2013-05-21 19:40:00,75.9,66.2,29.71,SW,215,5.0,5.0,72,0.00,,,0.00,Wunderground v.1.15,2013-05-22 00:40:00,
2013-05-21 19:45:00,75.7,66.4,29.71,SW,228,4.0,5.0,73,0.00,,,0.00,Wunderground v.1.15,2013-05-22 00:45:00,
2013-05-21 19:50:00,75.6,66.3,29.71,SW,236,4.0,4.0,73,0.00,,,0.00,Wunderground v.1.15,2013-05-22 00:50:00,
2013-05-21 19:55:00,75.4,66.5,29.71,WSW,247,3.0,4.0,74,0.00,,,0.00,Wunderground v.1.15,2013-05-22 00:55:00,
2013-05-21 20:00:00,75.3,66.8,29.71,WSW,246,2.0,2.0,75,0.00,,,0.00,Wunderground v.1.15,2013-05-22 01:00:00,
2013-05-21 20:05:00,75.1,65.9,29.71,West,267,1.0,2.0,73,0.00,,,0.00,Wunderground v.1.15,2013-05-22 01:05:00,
2013-05-21 20:10:00,74.6,65.4,29.71,WSW,240,1.0,1.0,73,0.00,,,0.00,Wunderground v.1.15,2013-05-22 01:10:00,
2013-05-21 20:15:00,74.3,65.1,29.72,WSW,255,1.0,1.0,73,0.00,,,0.00,Wunderground v.1.15,2013-05-22 01:15:00,
2013-05-21 20:20:00,74.2,65.4,29.71,West,276,1.0,1.0,74,0.00,,,0.00,Wunderground v.1.15,2013-05-22 01:20:00,
2013-05-21 20:25:00,74.1,65.7,29.71,SW,228,1.0,2.0,75,0.00,,,0.00,Wunderground v.1.15,2013-05-22 01:25:00,
2013-05-21 20:30:00,73.8,65.8,29.71,SW,236,1.0,2.0,76,0.00,,,0.00,Wunderground v.1.15,2013-05-22 01:30:00,
2013-05-21 20:35:00,73.6,65.6,29.71,WSW,255,1.0,2.0,76,0.00,,,0.00,Wunderground v.1.15,2013-05-22 01:35:00,
2013-05-21 20:40:00,73.3,65.7,29.71,WSW,252,0.0,1.0,77,0.00,,,0.00,Wunderground v.1.15,2013-05-22 01:40:00,
2013-05-21 20:45:00,73.0,65.7,29.71,WSW,245,0.0,1.0,78,0.00,,,0.00,Wunderground v.1.15,2013-05-22 01:45:00,
2013-05-21 20:50:00,72.7,65.4,29.71,WSW,245,0.0,0.0,78,0.00,,,0.00,Wunderground v.1.15,2013-05-22 01:50:00,
2013-05-21 20:55:00,72.5,65.2,29.71,WSW,245,0.0,0.0,78,0.00,,,0.00,Wunderground v.1.15,2013-05-22 01:55:00,
2013-05-21 21:00:00,72.2,65.3,29.71,WSW,245,0.0,0.0,79,0.00,,,0.00,Wunderground v.1.15,2013-05-22 02:00:00,
2013-05-21 21:05:00,71.9,65.0,29.71,WSW,245,0.0,0.0,79,0.00,,,0.00,Wunderground v.1.15,2013-05-22 02:05:00,
2013-05-21 21:10:00,71.9,65.4,29.71,WSW,245,0.0,0.0,80,0.00,,,0.00,Wunderground v.1.15,2013-05-22 02:10:00,
2013-05-21 21:15:00,71.6,65.1,29.71,SSW,204,1.0,1.0,80,0.00,,,0.00,Wunderground v.1.15,2013-05-22 02:15:00,
2013-05-21 21:20:00,71.5,65.4,29.71,SSW,204,1.0,1.0,81,0.00,,,0.00,Wunderground v.1.15,2013-05-22 02:20:00,
2013-05-21 21:25:00,71.3,65.2,29.71,SSW,204,0.0,1.0,81,0.00,,,0.00,Wunderground v.1.15,2013-05-22 02:25:00,
2013-05-21 21:30:00,71.2,65.1,29.71,SSW,204,0.0,0.0,81,0.00,,,0.00,Wunderground v.1.15,2013-05-22 02:30:00,
2013-05-21 21:35:00,71.2,65.1,29.71,SSW,205,0.0,0.0,81,0.00,,,0.00,Wunderground v.1.15,2013-05-22 02:35:00,
2013-05-21 21:40:00,71.1,65.0,29.71,SSW,204,0.0,0.0,81,0.00,,,0.00,Wunderground v.1.15,2013-05-22 02:40:00,
2013-05-21 21:45:00,71.0,64.9,29.70,SSW,204,0.0,0.0,81,0.00,,,0.00,Wunderground v.1.15,2013-05-22 02:45:00,
2013-05-21 21:50:00,70.9,65.1,29.70,SSW,204,0.0,0.0,82,0.00,,,0.00,Wunderground v.1.15,2013-05-22 02:50:00,
2013-05-21 21:55:00,70.8,64.7,29.70,SSW,204,0.0,0.0,81,0.00,,,0.00,Wunderground v.1.15,2013-05-22 02:55:00,
2013-05-21 22:00:00,70.5,64.4,29.70,SSW,204,0.0,0.0,81,0.00,,,0.00,Wunderground v.1.15,2013-05-22 03:00:00,
2013-05-21 22:05:00,70.3,64.9,29.69,SSW,204,0.0,0.0,83,0.00,,,0.00,Wunderground v.1.15,2013-05-22 03:05:00,
2013-05-21 22:10:00,69.8,64.4,29.69,SSW,204,0.0,0.0,83,0.00,,,0.00,Wunderground v.1.15,2013-05-22 03:10:00,
2013-05-21 22:15:00,69.6,64.5,29.69,SSW,204,0.0,0.0,84,0.00,,,0.00,Wunderground v.1.15,2013-05-22 03:15:00,
2013-05-21 22:20:00,69.3,64.3,29.69,SSW,204,0.0,0.0,84,0.00,,,0.00,Wunderground v.1.15,2013-05-22 03:20:00,
2013-05-21 22:25:00,69.2,64.2,29.69,SSW,204,0.0,0.0,84,0.00,,,0.00,Wunderground v.1.15,2013-05-22 03:25:00,
2013-05-21 22:30:00,69.3,64.3,29.69,SSW,204,0.0,0.0,84,0.00,,,0.00,Wunderground v.1.15,2013-05-22 03:30:00,
2013-05-21 22:35:00,69.1,64.1,29.69,SSW,204,0.0,0.0,84,0.00,,,0.00,Wunderground v.1.15,2013-05-22 03:35:00,
2013-05-21 22:40:00,69.0,64.0,29.69,SSW,204,0.0,0.0,84,0.00,,,0.00,Wunderground v.1.15,2013-05-22 03:40:00,
2013-05-21 22:45:00,68.8,63.8,29.69,SSW,204,0.0,0.0,84,0.00,,,0.00,Wunderground v.1.15,2013-05-22 03:45:00,
2013-05-21 22:50:00,68.7,64.0,29.69,SSW,204,0.0,0.0,85,0.00,,,0.00,Wunderground v.1.15,2013-05-22 03:50:00,
2013-05-21 22:55:00,68.5,63.8,29.69,SSW,204,0.0,0.0,85,0.00,,,0.00,Wunderground v.1.15,2013-05-22 03:55:00,
2013-05-21 23:00:00,68.3,63.9,29.70,SSW,204,0.0,0.0,86,0.00,,,0.00,Wunderground v.1.15,2013-05-22 04:00:00,
2013-05-21 23:05:00,68.1,63.4,29.70,SSW,204,0.0,0.0,85,0.00,,,0.00,Wunderground v.1.15,2013-05-22 04:05:00,
2013-05-21 23:10:00,67.9,63.6,29.70,SSW,204,0.0,0.0,86,0.00,,,0.00,Wunderground v.1.15,2013-05-22 04:10:00,
2013-05-21 23:15:00,67.7,63.4,29.70,SSW,197,0.0,1.0,86,0.00,,,0.00,Wunderground v.1.15,2013-05-22 04:15:00,
2013-05-21 23:20:00,67.4,63.1,29.71,South,187,1.0,1.0,86,0.00,,,0.00,Wunderground v.1.15,2013-05-22 04:20:00,
2013-05-21 23:25:00,67.1,63.1,29.71,South,188,1.0,1.0,87,0.00,,,0.00,Wunderground v.1.15,2013-05-22 04:25:00,
2013-05-21 23:30:00,67.1,63.1,29.71,South,188,1.0,1.0,87,0.00,,,0.00,Wunderground v.1.15,2013-05-22 04:30:00,
2013-05-21 23:35:00,67.2,63.2,29.71,South,188,1.0,1.0,87,0.00,,,0.00,Wunderground v.1.15,2013-05-22 04:35:00,
2013-05-21 23:40:00,67.3,63.3,29.71,South,191,1.0,1.0,87,0.00,,,0.00,Wunderground v.1.15,2013-05-22 04:40:00,
2013-05-21 23:45:00,67.6,62.9,29.71,SW,226,1.0,1.0,85,0.00,,,0.00,Wunderground v.1.15,2013-05-22 04:45:00,
2013-05-21 23:50:00,67.8,62.8,29.71,SW,226,1.0,1.0,84,0.00,,,0.00,Wunderground v.1.15,2013-05-22 04:50:00,
2013-05-21 23:55:00,68.0,62.6,29.71,SW,226,0.0,1.0,83,0.00,,,0.00,Wunderground v.1.15,2013-05-22 04:55:00,